WB5OMR-9 Weather Reports


time (UTC)temp
C
wind
direction
speed
KPH
gust
KPH
rain 1hr
cm
rain 24hr
cm
rain mn
cm
humidity
%
barometer
mb
20260506235324 29 0.0 0.0 0.00 0.00 0.00 60 1009.5
20260506234323 30 0.0 0.0 0.00 0.00 0.00 60 1009.5
20260506233321 30 0.0 0.0 0.00 0.00 0.00 60 1008.8
20260506232320 31 0.0 0.0 0.00 0.00 0.00 63 1008.8
20260506231319 31 0.0 0.0 0.00 0.00 0.00 62 1008.1
20260506230318 31 0.0 0.0 0.00 0.00 0.00 61 1008.1
20260506225235 32 0.0 0.0 0.00 0.00 0.00 61 1007.8
20260506224233 32 0.0 0.0 0.00 0.00 0.00 60 1007.8
20260506223232 32 0.0 0.0 0.00 0.00 0.00 59 1007.5
20260506222231 33 0.0 0.0 0.00 0.00 0.00 59 1007.5
20260506221230 33 0.0 0.0 0.00 0.00 0.00 58 1007.5
20260506220229 33 0.0 0.0 0.00 0.00 0.00 58 1007.5
20260506215145 32 0.0 0.0 0.00 0.00 0.00 59 1007.8
20260506214144 32 0.0 0.0 0.00 0.00 0.00 59 1007.8
20260506213143 33 0.0 0.0 0.00 0.00 0.00 58 1007.8
20260506212142 33 0.0 0.0 0.00 0.00 0.00 57 1008.1
20260506211141 33 0.0 0.0 0.00 0.00 0.00 57 1008.5
20260506210057 33 0.0 0.0 0.00 0.00 0.00 57 1008.5
20260506205056 33 0.0 0.0 0.00 0.00 0.00 58 1008.8
20260506204013 33 0.0 0.0 0.00 0.00 0.00 57 1008.8
20260506203012 34 0.0 0.0 0.00 0.00 0.00 56 1008.8
20260506202011 35 0.0 0.0 0.00 0.00 0.00 55 1009.1
20260506201011 34 0.0 0.0 0.00 0.00 0.00 58 1009.1
20260506200010 33 0.0 0.0 0.00 0.00 0.00 58 1009.1
20260506195009 33 0.0 0.0 0.00 0.00 0.00 59 1009.5
20260506194008 33 0.0 0.0 0.00 0.00 0.00 60 1009.5
20260506193007 33 0.0 0.0 0.00 0.00 0.00 62 1009.5
20260506192006 31 0.0 0.0 0.00 0.00 0.00 66 1009.8
20260506190923 31 0.0 0.0 0.00 0.00 0.00 66 1009.8
20260506185921 31 0.0 0.0 0.00 0.00 0.00 68 1009.8
20260506184920 31 0.0 0.0 0.00 0.00 0.00 69 1009.8
20260506183919 30 0.0 0.0 0.00 0.00 0.00 71 1009.8
20260506182917 30 0.0 0.0 0.00 0.00 0.00 72 1010.2
20260506181916 29 0.0 0.0 0.00 0.00 0.00 73 1010.5
20260506180833 29 0.0 0.0 0.00 0.00 0.00 75 1010.5
20260506175832 28 0.0 0.0 0.00 0.00 0.00 76 1010.5
20260506174831 28 0.0 0.0 0.00 0.00 0.00 76 1010.5
20260506173830 28 0.0 0.0 0.00 0.00 0.00 78 1010.5
20260506172829 28 0.0 0.0 0.00 0.00 0.00 82 1010.5
20260506171828 26 0.0 0.0 0.00 0.00 0.00 83 1010.5
20260506170826 26 0.0 0.0 0.00 0.00 0.00 84 1010.5
20260506165825 26 0.0 0.0 0.00 0.00 0.00 84 1010.5
20260506164824 26 0.0 0.0 0.00 0.00 0.00 85 1010.5
20260506163741 26 0.0 0.0 0.00 0.00 0.00 85 1010.5
20260506162658 26 0.0 0.0 0.00 0.00 0.00 85 1010.5
20260506161614 25 0.0 0.0 0.00 0.00 0.00 85 1010.2
20260506160613 26 0.0 0.0 0.00 0.00 0.00 84 1010.2
20260506155610 26 0.0 0.0 0.00 0.00 0.00 84 1009.8
20260506154609 26 0.0 0.0 0.00 0.00 0.00 84 1009.8
20260506153608 26 0.0 0.0 0.00 0.00 0.00 84 1009.8
20260506152607 26 0.0 0.0 0.00 0.00 0.00 84 1009.8
20260506151524 26 0.0 0.0 0.00 0.00 0.00 84 1009.8
20260506150441 25 0.0 0.0 0.00 0.00 0.00 85 1009.5
20260506145357 25 0.0 0.0 0.00 0.00 0.00 85 1009.1
20260506144356 25 0.0 0.0 0.00 0.00 0.00 86 1009.1
20260506143355 25 0.0 0.0 0.00 0.00 0.00 86 1008.8
20260506142353 25 0.0 0.0 0.00 0.00 0.00 87 1009.1
20260506141310 25 0.0 0.0 0.00 0.00 0.00 87 1008.8
20260506140309 24 0.0 0.0 0.00 0.00 0.00 87 1008.5
20260506135308 24 0.0 0.0 0.00 0.00 0.00 87 1008.1
20260506134307 24 0.0 0.0 0.00 0.00 0.00 87 1008.1
20260506133306 24 0.0 0.0 0.00 0.00 0.00 87 1008.1
20260506132307 24 0.0 0.0 0.00 0.00 0.00 87 1008.1
20260506131304 24 0.0 0.0 0.00 0.00 0.00 87 1007.8
20260506130302 24 0.0 0.0 0.00 0.00 0.00 88 1007.8
20260506125301 23 0.0 0.0 0.00 0.00 0.00 88 1007.8
20260506124259 23 0.0 0.0 0.00 0.00 0.00 87 1007.8
20260506123215 23 0.0 0.0 0.00 0.00 0.00 87 1007.8
20260506122214 23 0.0 0.0 0.00 0.00 0.00 87 1007.8
20260506121213 23 0.0 0.0 0.00 0.00 0.00 87 1007.8
20260506120211 23 0.0 0.0 0.00 0.00 0.00 87 1007.8
20260506115210 23 0.0 0.0 0.00 0.00 0.00 87 1007.8
20260506114209 23 0.0 0.0 0.00 0.00 0.00 87 1007.8
20260506113208 23 0.0 0.0 0.00 0.00 0.00 87 1007.8
20260506112206 23 0.0 0.0 0.00 0.00 0.00 87 1007.5
20260506111205 23 0.0 0.0 0.00 0.00 0.00 87 1007.5
20260506110204 23 0.0 0.0 0.00 0.00 0.00 86 1007.5
20260506105203 23 0.0 0.0 0.00 0.00 0.00 86 1007.5
20260506104201 23 0.0 0.0 0.00 0.00 0.00 86 1007.5
20260506103200 23 0.0 0.0 0.00 0.00 0.00 86 1007.5
20260506102116 24 0.0 0.0 0.00 0.00 0.00 86 1007.5
20260506101115 24 0.0 0.0 0.00 0.00 0.00 86 1007.5
20260506100032 24 0.0 0.0 0.00 0.00 0.00 86 1007.5
20260506094949 24 0.0 0.0 0.00 0.00 0.00 86 1007.8
20260506093906 24 0.0 0.0 0.00 0.00 0.00 86 1007.8
20260506092905 24 0.0 0.0 0.00 0.00 0.00 86 1007.8
20260506091904 24 0.0 0.0 0.00 0.00 0.00 86 1007.8
20260506090903 24 0.0 0.0 0.00 0.00 0.00 86 1007.5
20260506085819 24 0.0 0.0 0.00 0.00 0.00 86 1007.5
20260506084818 24 0.0 0.0 0.00 0.00 0.00 86 1007.5
20260506083817 24 0.0 0.0 0.00 0.00 0.00 86 1007.5
20260506082815 24 0.0 0.0 0.00 0.00 0.00 85 1007.5
20260506081814 24 0.0 0.0 0.00 0.00 0.00 85 1007.8
20260506080813 25 0.0 0.0 0.00 0.00 0.00 85 1007.8
20260506072645 25 0.0 0.0 0.00 0.00 0.00 85 1007.8
20260506071643 25 0.0 0.0 0.00 0.00 0.00 85 1007.8
20260506070642 25 0.0 0.0 0.00 0.00 0.00 84 1007.8
20260506062431 25 0.0 0.0 0.00 0.00 0.00 84 1008.1
20260506061429 25 0.0 0.0 0.00 0.00 0.00 84 1007.8
20260506060428 25 0.0 0.0 0.00 0.00 0.00 83 1007.8
20260506051214 25 0.0 0.0 0.00 0.00 0.00 81 1007.8
20260506050131 25 0.0 0.0 0.00 0.00 0.00 81 1007.8
20260506045048 26 0.0 0.0 0.00 0.00 0.00 81 1007.8
20260506044047 26 0.0 0.0 0.00 0.00 0.00 80 1007.8
20260506043045 26 0.0 0.0 0.00 0.00 0.00 79 1007.8
20260506042044 26 0.0 0.0 0.00 0.00 0.00 79 1007.8
20260506041043 26 0.0 0.0 0.00 0.00 0.00 79 1007.5
20260506040041 26 0.0 0.0 0.00 0.00 0.00 78 1007.5
20260506035040 26 0.0 0.0 0.00 0.00 0.00 78 1007.5
20260506034039 27 0.0 0.0 0.00 0.00 0.00 77 1007.1
20260506033038 27 0.0 0.0 0.00 0.00 0.00 77 1007.1
20260506031954 27 0.0 0.0 0.00 0.00 0.00 76 1007.1
20260506030953 27 0.0 0.0 0.00 0.00 0.00 75 1007.1
20260506025952 27 0.0 0.0 0.00 0.00 0.00 74 1006.8
20260506024951 28 0.0 0.0 0.00 0.00 0.00 73 1006.8
20260506023950 28 0.0 0.0 0.00 0.00 0.00 72 1006.4
20260506022906 28 0.0 0.0 0.00 0.00 0.00 71 1006.1
20260506021905 28 0.0 0.0 0.00 0.00 0.00 70 1006.1
20260506020904 29 0.0 0.0 0.00 0.00 0.00 69 1005.8
20260506015903 29 0.0 0.0 0.00 0.00 0.00 68 1005.4
20260506014902 29 0.0 0.0 0.00 0.00 0.00 68 1005.8
20260506013901 30 0.0 0.0 0.00 0.00 0.00 67 1006.1
20260506012817 30 0.0 0.0 0.00 0.00 0.00 66 1006.4
20260506011816 30 0.0 0.0 0.00 0.00 0.00 65 1005.8
20260506010815 31 0.0 0.0 0.00 0.00 0.00 64 1005.4
20260506005814 31 0.0 0.0 0.00 0.00 0.00 64 1005.4
20260506004813 31 0.0 0.0 0.00 0.00 0.00 63 1005.4
20260506003813 31 0.0 0.0 0.00 0.00 0.00 62 1005.4
20260506002812 32 0.0 0.0 0.00 0.00 0.00 61 1005.1
20260506001811 32 0.0 0.0 0.00 0.00 0.00 60 1005.4
20260506000810 32 0.0 0.0 0.00 0.00 0.00 59 1005.4